Flag for Austria Weather past 2 weeks in Kapfenberg, Styria, Austria

Now
46 °F

Cool.


Feels Like: 46 °F
Forecast: 38 / 60 °F
Wind: 1 mph from North

Location: Graz-Thalerhof-Flughafen

Current Time: Apr 28, 2015 at 4:54:52 AM

Latest Report: Apr 28, 2015 at 4:20 AM


Visibility: N/A

Pressure: 29.56 "Hg

Humidity: 93%

Dew point: 45 °F

Location of KapfenbergLocation

Historic Weather in Kapfenberg — Graph

°F

Kapfenberg temperature yesterday

Maximum temperature yesterday: 73 °F (at 2:20 PM)
Minimum temperature yesterday: 43 °F (at 4:50 AM)
Average temperature yesterday: 59 °F

Past Weeks' High & Low Weather Summary

 TemperatureHumidityPressure
High81 °F (Apr 16, 3:50 PM)100% (Apr 13, 6:50 AM)30.42 "Hg (Apr 13, 6:50 AM)
Low32 °F (Apr 19, 5:50 AM)17% (Apr 16, 3:20 PM)29.59 "Hg (Apr 28, 1:50 AM)
Average55 °F59%30.03 "Hg
* Reported Apr 13 3:20 AM — Apr 28 3:20 AM, Kapfenberg, Weather by CustomWeather, © 2015

Note: Actual official high and low records may vary slightly from our data, if they occured in-between our weather recording intervals... More about our weather records

Advertising

Kapfenberg weather history for previous 24 hours

 ConditionsComfort  
Time TempWeatherWind HumidityBarometerVisibility
3:20 AM
Tue, Apr 28
48 °FCool.2 mph87%29.59 "HgN/A
2:50 AM46 °FCool.5 mph87%29.59 "HgN/A
2:20 AM48 °FCool.6 mph87%29.59 "HgN/A
1:50 AM50 °FCool.2 mph82%29.59 "HgN/A
1:20 AM50 °FCool.2 mph82%29.62 "HgN/A
12:50 AM50 °FPassing clouds.2 mph82%29.62 "HgN/A
12:20 AM54 °FCool.2 mph77%29.62 "HgN/A
11:50 PM
Mon, Apr 27
54 °FPassing clouds.2 mph72%29.62 "HgN/A
10:50 PM57 °FPassing clouds.5 mph67%29.65 "HgN/A
10:20 PM57 °FPassing clouds.3 mph67%29.65 "HgN/A
9:50 PM57 °FPassing clouds.1 mph63%29.65 "HgN/A
9:20 PM59 °FPassing clouds.6 mph63%29.65 "HgN/A
8:50 PM61 °FScattered clouds.6 mph59%29.65 "HgN/A
8:20 PM61 °FScattered clouds.6 mph55%29.65 "HgN/A
7:50 PM63 °FPartly sunny.7 mph52%29.65 "HgN/A
7:20 PM64 °FBroken clouds.8 mph49%29.65 "HgN/A
6:50 PM64 °FBroken clouds.10 mph49%29.65 "HgN/A
6:20 PM66 °FBroken clouds.8 mph46%29.65 "HgN/A
5:50 PM66 °FBroken clouds.12 mph43%29.65 "HgN/A
5:20 PM68 °FBroken clouds.14 mph43%29.65 "HgN/A
4:50 PM72 °FScattered clouds.10 mph38%29.65 "HgN/A
4:20 PM72 °FScattered clouds.13 mph38%29.65 "HgN/A
3:50 PM70 °FScattered clouds.15 mph38%29.65 "HgN/A
3:20 PM72 °FScattered clouds.16 mph36%29.68 "HgN/A
2:50 PM72 °FScattered clouds.14 mph36%29.68 "HgN/A
2:20 PM73 °FBroken clouds.9 mph31%29.68 "HgN/A
1:50 PM72 °FBroken clouds.10 mph36%29.68 "HgN/A
1:20 PM70 °FBroken clouds.9 mph40%29.68 "HgN/A
12:50 PM72 °FBroken clouds.9 mph36%29.68 "HgN/A
12:20 PM72 °FScattered clouds.8 mph38%29.68 "HgN/A
11:50 AM70 °FScattered clouds.8 mph40%29.68 "HgN/A
11:20 AM70 °FScattered clouds.7 mph43%29.68 "HgN/A
10:50 AM68 °FScattered clouds.10 mph46%29.68 "HgN/A
10:20 AM64 °FScattered clouds.3 mph64%29.68 "HgN/A
9:50 AM64 °FScattered clouds.1 mph60%29.68 "HgN/A
9:20 AM63 °FScattered clouds.3 mph64%29.71 "HgN/A
8:50 AM59 °FScattered clouds.2 mph72%29.71 "HgN/A
8:20 AM57 °FScattered clouds.2 mph77%29.71 "HgN/A
7:50 AM54 °FScattered clouds.2 mph82%29.71 "HgN/A
7:20 AM50 °FPartly sunny.1 mph94%29.71 "HgN/A
6:50 AM46 °FFog.1 mph100%29.71 "HgN/A
6:20 AM45 °FPassing clouds.1 mph100%29.71 "HgN/A
5:50 AM45 °FQuite cool.3 mph100%29.71 "HgN/A
5:20 AM45 °FPassing clouds.1 mph100%29.71 "Hg4 mi
4:50 AM43 °FLight fog.1 mph100%29.71 "Hg1 mi
4:20 AM46 °FCool.1 mph93%29.74 "Hg5 mi
Weather by CustomWeather, © 2015

See weather overviewHow to use our weather pages